Tracking 17925 objects as of 19-February-2017
HD Live streaming from Space Station
objects crossing your sky now

DMSP 5D-2 F11 DEB

Track DMSP 5D-2 F11 DEB now!
10-day predictions


NORAD ID: 29070
Int'l Code: 1991-082BR
Perigee: 783.4 km
Apogee: 805.2 km
Inclination: 98.8 °
Period: 100.6 minutes
Semi major axis: 7165 km
RCS: 0.0089 m2 (small)
Launch date: November 28, 1991
Source: United States (US)
Launch site: AIR FORCE WESTERN TEST RANGE (AFWTR)

Note: This is SATELLITE DEBRIS
Your satellite tracking list
Your tracking list is empty





NASA's NSSDC Master Catalog

Two Line Element Set (TLE):
1 29070U 91082BR  17047.86012931 +.00000973 +00000-0 +38384-3 0  9995
2 29070 098.7876 067.4023 0015218 145.1169 215.1014 14.31377335641519
Source of the keplerian elements: AFSPC